Location: Roland
(31.1349°N, 85.4372°W)
Time: 09:34:22
(UTC+00:00)

Explorer 7 - All Passes

Search period start: 19 April 2021 00:00
Search period end: 29 April 2021 00:00
Orbit: 484 x 677 km, 50.3° (Epoch: 18 April)

Date Brightness Start Highest point End Pass type
(mag) Time Alt. Az. Time Alt. Az. Time Alt. Az.
19 Apr - 01:09:54 10° SW 01:13:47 71° NW 01:17:55 10° NE visible
19 Apr - 02:52:59 10° NW 02:54:58 13° NNW 02:56:59 10° N visible
19 Apr - 07:57:14 10° NNW 08:01:30 34° NE 08:05:53 10° ESE visible
19 Apr - 09:37:42 10° WNW 09:42:04 36° SW 09:46:31 10° SSE visible
19 Apr - 23:35:20 10° S 23:38:07 19° SE 23:40:59 10° E daylight
20 Apr - 01:14:37 10° WSW 01:18:18 39° NW 01:22:12 10° NNE visible
20 Apr - 06:22:43 10° N 06:24:42 12° NNE 06:26:43 10° NE night (unlit)
20 Apr - 08:01:28 10° NW 08:06:02 53° NE 08:10:47 10° ESE visible
20 Apr - 09:42:47 10° W 09:46:22 21° SW 09:50:00 10° S visible
20 Apr - 23:38:53 10° SSW 23:42:23 36° SE 23:46:04 10° ENE daylight
21 Apr - 01:19:40 10° W 01:22:55 24° NNW 01:26:20 10° NNE visible
21 Apr - 06:26:26 10° NNW 06:29:29 17° NNE 06:32:36 10° ENE night (unlit)
21 Apr - 08:05:49 10° NW 08:10:31 88° NE 08:15:23 10° SE night (unlit)
21 Apr - 09:48:54 10° WSW 09:50:37 12° SW 09:52:21 10° SW visible
21 Apr - 23:42:57 10° SW 23:46:45 71° SE 23:50:43 10° NE daylight
22 Apr - 01:25:04 10° WNW 01:27:37 16° NNW 01:30:15 10° NNE visible
22 Apr - 06:30:25 10° NNW 06:34:10 24° NNE 06:38:04 10° E night (unlit)
22 Apr - 08:10:21 10° NW 08:14:55 54° SW 08:19:38 10° SSE night (unlit)
22 Apr - 22:09:55 10° SE 22:11:13 11° SE 22:12:31 10° ESE daylight
22 Apr - 23:47:24 10° WSW 23:51:11 60° NW 23:55:08 10° NE daylight
23 Apr - 01:31:06 10° NW 01:32:24 11° NNW 01:33:44 10° N visible
23 Apr - 06:34:32 10° NNW 06:38:46 37° NE 06:43:11 10° ESE night (unlit)
23 Apr - 08:15:08 10° WNW 08:19:16 31° SW 08:23:30 10° SSE night (unlit)
23 Apr - 22:12:29 10° S 22:15:26 22° SE 22:18:28 10° ENE daylight
23 Apr - 23:52:13 10° WSW 23:55:42 33° NW 23:59:22 10° NNE daylight
24 Apr - 05:00:00 10° N 05:02:04 13° NNE 05:04:10 10° NE visible
24 Apr - 06:38:47 10° NW 06:43:17 60° NE 06:48:00 10° ESE night (unlit)
24 Apr - 08:20:23 10° W 08:23:33 18° SW 08:26:47 10° S night (unlit)
24 Apr - 22:16:11 10° SSW 22:19:44 42° SE 22:23:25 10° ENE daylight
24 Apr - 23:57:21 10° W 00:00:20 21° NNW 00:03:25 10° NNE daylight
25 Apr - 05:03:44 10° NNW 05:06:48 18° NNE 05:09:59 10° ENE visible
25 Apr - 06:43:10 10° NW 06:47:43 81° SW 06:52:31 10° SE night (unlit)
25 Apr - 22:20:22 10° SW 22:24:06 84° SE 22:28:00 10° NE daylight
26 Apr - 00:02:54 10° WNW 00:05:02 14° NNW 00:07:13 10° N daylight
26 Apr - 05:07:43 10° NNW 05:11:27 26° NE 05:15:22 10° E visible
26 Apr - 06:47:44 10° WNW 06:52:06 46° SW 06:56:40 10° SSE night (unlit)
26 Apr - 20:46:39 10° SSE 20:48:31 13° SE 20:50:23 10° E daylight
26 Apr - 22:24:54 10° WSW 22:28:33 50° NW 22:32:21 10° NE daylight
27 Apr - 05:11:51 10° NNW 05:16:01 40° NE 05:20:25 10° ESE visible
27 Apr - 06:52:37 10° WNW 06:56:26 26° SW 07:00:24 10° S night (unlit)
27 Apr - 20:49:38 10° S 20:52:45 25° SE 20:55:56 10° ENE daylight
27 Apr - 22:29:47 10° W 22:33:05 29° NW 22:36:31 10° NNE daylight
28 Apr - 03:37:16 10° N 03:39:24 13° NNE 03:41:35 10° ENE visible
28 Apr - 05:16:06 10° NW 05:20:30 67° NE 05:25:10 10° SE night (unlit)
28 Apr - 06:58:05 10° W 07:00:43 15° SW 07:03:24 10° SSW night (unlit)
28 Apr - 20:53:28 10° SSW 20:57:04 50° SE 21:00:46 10° ENE daylight
28 Apr - 22:35:02 10° WNW 22:37:43 18° NNW 22:40:30 10° NNE daylight
